Regional Weather Roundup
Issued by NWS Sioux Falls, SD

Home | Current Version | Previous Version | Text Only | Print | Product List | Glossary On
Versions: 1 2 3 4 5 6 7 8 9 10 11 12 13 14 15 16 17 18 19 20 21 22 23 24 25 26 27 28 29 30 31 32 33 34 35 36 37 38 39 40 41 42 43 44 45 46 47 48 49 50
000
ASUS43 KFSD 040010
RWRFSD

WEATHER ROUNDUP FOR SE SOUTH DAKOTA/SW MINNESOTA/NW IOWA
NATIONAL WEATHER SERVICE SIOUX FALLS SD
700 PM CDT FRI JUL 03 2015

NOTE: "FAIR" INDICATES FEW OR NO CLOUDS BELOW 12,000 FEET WITH NO
SIGNIFICANT WEATHER AND OR OBSTRUCTIONS TO VISIBILITY.


SDZ038>040-050-052>070-040100-
SOUTHEAST SOUTH DAKOTA

CITY           SKY/WX    TMP DP  RH WIND       PRES   REMARKS
BROOKINGS      MOSUNNY   79  64  61 W6        29.96S
CHAMBERLAIN    SUNNY     79  66  64 SE3       29.94F
6HR MIN TEMP:  76; 6HR MAX TEMP:  81;

HURON          MOSUNNY   79  67  66 S5        29.92F
6HR MIN TEMP:  76; 6HR MAX TEMP:  82;

MADISON        FAIR      75  66  73 SW7       29.96F
MITCHELL       SUNNY     79  66  64 SE6       29.94F
6HR MIN TEMP:  74; 6HR MAX TEMP:  81;

SIOUX FALLS    CLOUDY    77  63  61 CALM      29.95F
6HR MIN TEMP:  73; 6HR MAX TEMP:  79;

WINNER         FAIR      84  58  40 E8        29.95F
YANKTON        SUNNY     77  63  61 NW3       29.93F
$$

MNZ071-072-080-081-089-090-097-098-040100-
SOUTHWEST MINNESOTA

CITY           SKY/WX    TMP DP  RH WIND       PRES   REMARKS
FAIRMONT       SUNNY     77  52  41 CALM      29.94S
JACKSON        SUNNY     77  57  50 W5        29.96S
LUVERNE        MOSUNNY   79  63  57 W6        29.96F
MARSHALL       MOSUNNY   81  64  57 SW5       29.91F
6HR MIN TEMP:  75; 6HR MAX TEMP:  82;

MONTEVIDEO     MOSUNNY   82  64  54 CALM      29.91F
PIPESTONE      MOSUNNY   77  64  65 W6        29.96S
REDWOOD FALLS  SUNNY     80  61  52 CALM      29.91F
TRACY          SUNNY     79  64  59 CALM      29.94S
WINDOM         SUNNY     79  55  44 CALM      29.95S
WORTHINGTON    SUNNY     75  57  53 W6        29.96S
$$

IAZ001>003-012>014-020>022-031-032-NEZ013-014-SDZ071-040100-
NORTHWEST IOWA

CITY           SKY/WX    TMP DP  RH WIND       PRES   REMARKS
CHEROKEE       SUNNY     74  59  60 CALM      29.96F
DENISON        SUNNY     75  55  50 CALM      29.95F
ESTHERVILLE    SUNNY     75  58  55 W8        29.95F
LE MARS        SUNNY     75  61  60 SW5       29.96F
ORANGE CITY    SUNNY     73  57  56 SW5       29.96F
SHELDON        SUNNY     75  55  50 CALM      29.95F
SIOUX CITY     SUNNY     78  56  46 CALM      29.95F
6HR MIN TEMP:  73; 6HR MAX TEMP:  79;

SPENCER        SUNNY     77  56  48 W6        29.96F
6HR MIN TEMP:  75; 6HR MAX TEMP:  80;

STORM LAKE     SUNNY     73  54  49 W5        29.98S
$$

ABBREVIATIONS USED IN REMARKS
   TC - TEMPERATURE IN CELSIUS
  WCI - WIND CHILL INDEX
   HX - HEAT INDEX
  VSB - VISIBILITY




USA.gov is the U.S. government's official web portal to all federal, state and local government web resources and services.